#timestamp,LO_Frequency,Hit,StdDev 
1627192815.2,286046998.2,N
1627192835.9,286046999.9,N
1627192855.7,286046998.2,N
1627192875.6,286046999.2,N
1627192895.4,286046997.2,N
1627192915.2,286046997.8,N
1627192935.1,286046997.7,N
1627192936.0,286046997.7,N
1627192955.8,286046997.3,N
1627192975.7,286046997.0,N
1627192995.5,286046997.3,N
1627193015.3,286046996.9,N
1627193035.2,286046998.4,N
1627193055.0,286046999.1,N
1627193055.9,286046999.1,N
1627193075.7,286046998.7,N
1627193095.6,286046999.4,N
1627193115.4,286046999.0,N
1627193135.3,286047000.5,N
1627193155.1,286046998.9,N
1627193156.0,286046998.9,N
1627193175.8,286046998.5,N
1627193195.7,286046999.4,N
1627193215.5,286046998.3,N
1627193235.3,286046998.6,N
1627193255.2,286046998.3,N
1627193275.0,286046998.9,N
1627193275.9,286046998.9,N
1627193295.8,286047001.0,N
1627193315.6,286046999.7,N
1627193335.4,286046999.7,N
1627193355.3,286047000.0,N
1627193375.1,286046999.0,N
1627193395.9,286046999.6,N
1627193415.7,286046999.0,N
1627193435.2,286046996.6,Y
1627193455.1,286047000.5,P
1627193456.0,286047000.5,N
1627193475.8,286046998.1,N
1627193495.6,286046999.6,N
1627193515.5,286046998.9,N
1627193535.3,286046999.1,N
1627193555.1,286046998.8,N
1627193575.9,286047000.8,N
1627193595.7,286046998.2,N
1627193615.6,286046998.2,N
1627193635.4,286046998.1,N
1627193655.2,286046998.1,N
1627193675.1,286046996.5,Y
1627193676.0,286046996.5,P
1627193695.8,286046998.1,N
1627193715.7,286047000.8,N
1627193735.5,286046999.8,N
1627193755.3,286047000.9,N
1627193775.2,286047002.1,N
1627193795.0,286047001.7,N
1627193795.9,286047001.7,N
1627193815.8,286047001.8,N
1627193835.6,286047002.1,N
1627193855.4,286047002.6,N
1627193875.3,286047000.1,N
1627193895.1,286047002.7,N
1627193915.8,286046999.9,N
1627193935.7,286047000.9,N
1627193955.5,286047002.7,N
1627193975.4,286047004.0,N
1627193995.2,286047005.7,Y
1627194015.0,286047005.8,P
1627194015.9,286047005.8,N
1627194035.8,286047005.2,N
1627194055.6,286047004.6,N
1627194075.4,286047007.5,Y
1627194095.3,286047002.8,P
1627194115.1,286047002.7,P
1627194135.9,286047002.1,N
1627194155.7,286047001.9,N
1627194175.5,286046999.8,N
1627194195.4,286047000.8,N
1627194215.2,286046998.7,N
1627194235.0,286046998.3,N
1627194236.0,286046998.3,N
1627194255.8,286046998.3,N
1627194275.6,286047000.2,N
1627194295.5,286047000.5,N
1627194315.3,286047000.7,N
1627194335.1,286047000.4,N
1627194355.9,286047000.5,N
1627194375.7,286047000.5,N
1627194395.5,286047000.0,N
1627194415.4,286046999.7,N
1627194435.2,286047000.9,N
1627194455.1,286047002.8,N
1627194456.0,286047002.8,N
1627194475.8,286047002.3,N
1627194495.6,286047011.9,Y
1627194515.5,286047001.0,P
1627194535.3,286047001.0,P
1627194555.2,286047001.1,P
1627194575.9,286046999.4,Y
1627194595.7,286046997.5,P
1627194615.6,286046995.0,N
1627194635.4,286046995.6,N
1627194655.2,286046996.3,N
1627194675.1,286046996.4,N
1627194676.0,286046996.4,N
1627194695.8,286046996.4,N
1627194715.7,286046994.6,Y
1627194735.5,286046997.1,P
1627194755.3,286046997.8,P
1627194775.2,286046995.5,P
1627194795.0,286046996.3,Y
1627194795.9,286046996.3,P
1627194815.8,286046997.0,P
1627194835.6,286046997.9,P
1627194855.4,286046998.0,Y
1627194875.3,286046998.7,P
1627194895.1,286046998.3,N
1627194915.8,286046999.4,N
1627194935.7,286046999.1,N
1627194955.5,286046999.3,N
1627194975.4,286046999.4,N
1627194995.2,286046996.8,Y
1627195015.0,286046999.3,P
1627195015.9,286046999.3,N
1627195035.8,286046997.0,P
1627195055.6,286046999.3,N
1627195075.4,286046998.7,N
1627195095.3,286046996.9,Y
1627195115.1,286046998.2,P
1627195135.9,286047001.0,P
1627195155.7,286047000.4,N
1627195175.5,286046999.9,N
1627195195.4,286047002.3,N
1627195215.2,286047002.3,N
1627195235.1,286047002.1,N
1627195236.0,286047002.1,N
1627195255.8,286047002.6,N
1627195275.6,286047002.0,N
1627195295.5,286047002.4,N
1627195315.3,286047000.2,N
1627195335.1,286047002.3,N
1627195355.9,286047002.4,N
1627195375.7,286047002.3,N
1627195395.6,286047002.5,N
1627195415.4,286047004.3,Y
1627195435.2,286047002.7,P
1627195455.1,286047001.8,N
1627195456.0,286047001.8,P
1627195475.8,286047002.6,Y
1627195495.7,286046998.7,P
1627195515.7,286046997.5,N
1627195535.6,286046996.5,N
1627195555.4,286046998.8,N
1627195575.2,286046998.8,N
1627195595.1,286046998.2,N
1627195596.0,286046998.2,N
1627195615.8,286047000.8,N
1627195635.6,286047000.9,N
1627195655.5,286047000.8,N
1627195675.3,286047000.7,N
1627195695.1,286047001.2,N
1627195715.9,286046998.3,N
1627195735.7,286046999.0,N
1627195755.6,286046998.7,N
1627195775.4,286046998.2,N
1627195795.2,286046996.6,N
1627195815.1,286046997.1,N
1627195816.0,286046997.1,N
1627195835.8,286046999.2,N
1627195855.6,286046998.8,N
1627195875.5,286046998.4,N
1627195895.3,286046996.5,N
1627195915.2,286046998.2,N
1627195935.9,286047001.0,N
1627195955.7,286047000.9,N
1627195975.6,286047000.6,N
1627195995.4,286047000.8,N
1627196015.2,286047000.3,N
1627196035.1,286046998.5,N
1627196036.0,286046998.5,N
1627196055.8,286046997.3,N
1627196075.7,286046999.0,N
1627196095.5,286046998.4,N
1627196115.3,286046998.3,N
1627196135.2,286046998.4,N
1627196155.0,286047000.7,N
1627196155.9,286047000.7,N
1627196175.8,286047000.7,N
1627196195.6,286046998.5,N
1627196215.4,286047001.0,N
1627196235.3,286047000.9,N
1627196255.1,286047002.2,N
1627196275.8,286047002.5,N
1627196295.7,286046999.8,N
1627196315.5,286047001.0,N
1627196335.8,286047001.0,N
1627196355.7,286046998.5,N
1627196375.5,286047000.2,N
1627196395.3,286047000.2,N
